Pasco, WA
on Saturday, February 16, 2013

Saturday
Previous Day Next Day
Daily Summary
 ActualAverageRecord
Temperature
Mean Temperature °F 39°F  
Max Temperature 59°F 49°F 59°F (2007)
Min Temperature 24°F 28°F 14°F (2005)
Degree Days
Heating Degree Days 23 26  
Month to date heating degree days 410 435  
Since 1 July heating degree days 3321 3586  
Cooling Degree Days 0 0  
Month to date cooling degree days 0 0  
Year to date cooling degree days 0 0  
Moisture
Dew Point 30°F   
Average Humidity 69    
Maximum Humidity 100    
Minimum Humidity 38    
Precipitation
Precipitation 0.00 in in 0.37 in (2003)
Month to date precipitation T  
Year to date precipitation 0.36  
Snow
Snow 0.00 in in in ()
Snow Depth 0.00 in   
Wind
Wind Speed 4 mph   
Max Wind Speed 29 mph   
Max Gust Speed 35 mph   
Visibility 10 miles   
Events     

Key: T is trace of precipitation, MM is missing value
Source: NWS Daily Summary
Time(PST)TemperatureDew PointHumidity Pressure Visibility Wind DirectionWind SpeedGust SpeedPrecipitationEvents Conditions
12:53 AM 30.0°F 28.9°F 96% 30.27 in 10.0 miles NNE 3.5 mph - N/A   Clear
1:53 AM 30.0°F 28.0°F 92% 30.25 in 10.0 miles Calm Calm - N/A   Clear
2:53 AM 28.0°F 26.1°F 92% 30.24 in 10.0 miles Calm Calm - N/A   Clear
3:53 AM 26.1°F 25.0°F 96% 30.22 in 10.0 miles Calm Calm - N/A   Clear
4:53 AM 26.1°F 24.1°F 92% 30.21 in 10.0 miles Calm Calm - N/A   Clear
5:53 AM 25.0°F 24.1°F 96% 30.20 in 10.0 miles Calm Calm - N/A   Clear
6:14 AM 24.8°F 23.0°F 93% 30.18 in 10.0 miles NW 3.5 mph - N/A   Partly Cloudy
6:53 AM 25.0°F 24.1°F 96% 30.19 in 8.0 miles Calm Calm - N/A   Partly Cloudy
7:53 AM 28.0°F 27.0°F 96% 30.19 in 10.0 miles Calm Calm - N/A   Clear
8:53 AM 35.1°F 32.0°F 89% 30.17 in 10.0 miles Calm Calm - N/A   Clear
9:53 AM 39.0°F 34.0°F 82% 30.16 in 10.0 miles Calm Calm - N/A   Mostly Cloudy
10:53 AM 46.0°F 37.0°F 71% 30.13 in 10.0 miles NNW 3.5 mph - N/A   Overcast
11:53 AM 48.0°F 37.0°F 66% 30.11 in 10.0 miles SSE 3.5 mph - N/A   Mostly Cloudy
12:53 PM 53.1°F 39.9°F 61% 30.07 in 10.0 miles SW 5.8 mph - N/A   Overcast
1:53 PM 54.0°F 39.9°F 59% 30.06 in 10.0 miles West 15.0 mph 21.9 mph N/A   Mostly Cloudy
2:53 PM 55.9°F 39.0°F 53% 30.03 in 10.0 miles SW 12.7 mph - N/A   Clear
3:53 PM 57.9°F 37.0°F 46% 30.01 in 10.0 miles West 9.2 mph 17.3 mph N/A   Clear
4:53 PM 55.9°F 30.9°F 39% 30.01 in 10.0 miles West 18.4 mph 27.6 mph N/A   Clear
5:53 PM 52.0°F 28.9°F 41% 30.04 in 10.0 miles West 20.7 mph 29.9 mph N/A   Clear
6:53 PM 48.0°F 27.0°F 44% 30.06 in 10.0 miles West 11.5 mph - N/A   Clear
7:53 PM 41.0°F 28.9°F 62% 30.08 in 10.0 miles SW 6.9 mph - N/A   Clear
8:53 PM 39.9°F 28.9°F 65% 30.09 in 10.0 miles WSW 9.2 mph - N/A   Clear
9:53 PM 37.9°F 30.0°F 73% 30.09 in 10.0 miles SW 3.5 mph - N/A   Clear
10:53 PM 37.0°F 28.9°F 73% 30.09 in 10.0 miles West 3.5 mph - N/A   Clear
11:53 PM 36.0°F 28.0°F 73% 30.10 in 10.0 miles WNW 3.5 mph - N/A   Clear
Moon Phase
Feb. 16 Feb. 17 Feb. 25 Mar. 04 Mar. 11
Sunrise:06:57 AM (PST) Moon Rise:09:48 AM (PST)2/16
Sunset:05:24 PM (PST) Moon Set:No Moon Set/

Copyright © 2014 The Weather Underground, Inc.